KB9LNR Weather Reports


time (UTC)temp
C
wind
direction
speed
KPH
gust
KPH
rain 1hr
cm
rain 24hr
cm
rain mn
cm
humidity
%
barometer
mb
20260906123111 21 63 1.6 4.8 0.00 0.00 0.00 90 1018.0
20260906121620 21 69 1.6 4.8 0.00 0.00 0.00 90 1017.7
20260906120131 21 0 1.6 6.4 0.00 0.00 0.00 91 1017.5
20260906114611 21 78 1.6 4.8 0.00 0.00 0.00 91 1017.2
20260906113109 21 34 0.0 4.8 0.00 0.00 0.00 90 1017.0
20260906111607 21 0 1.6 4.8 0.00 0.00 0.00 90 1016.6
20260906110118 21 0 0.0 3.2 0.00 0.00 0.00 89 1016.8
20260906104605 21 32 0.0 3.2 0.00 0.00 0.00 90 1016.6
20260906103103 21 0 1.6 4.8 0.00 0.00 0.00 89 1016.4
20260906101603 21 0 0.0 3.2 0.00 0.00 0.00 89 1016.3
20260906100110 21 42 0.0 4.8 0.00 0.00 0.00 89 1016.1
20260906094606 21 302 0.0 3.2 0.00 0.00 0.00 89 1016.2
20260906093118 21 0 0.0 3.2 0.00 0.00 0.00 89 1016.2
20260906091605 21 0 0.0 3.2 0.00 0.00 0.00 90 1016.1
20260906090130 21 0 0.0 3.2 0.00 0.00 0.00 90 1016.1
20260906084607 21 0 0.0 3.2 0.00 0.00 0.00 90 1016.2
20260906083106 21 0 0.0 3.2 0.00 0.00 0.00 90 1016.3
20260906081605 21 0 0.0 3.2 0.00 0.00 0.00 90 1016.5
20260906080105 21 0 0.0 3.2 0.00 0.00 0.00 90 1016.4
20260906074607 21 0 0.0 0.0 0.00 0.00 0.00 90 1016.3
20260906073105 21 0 0.0 0.0 0.00 0.00 0.00 90 1016.5
20260906071611 21 0 0.0 0.0 0.00 0.00 0.00 89 1016.6
20260906070111 21 0 0.0 1.6 0.00 0.00 0.00 89 1016.6
20260906064604 21 0 0.0 0.0 0.00 0.00 0.00 88 1016.6
20260906063106 21 0 0.0 3.2 0.00 0.00 0.00 88 1016.6
20260906061610 21 0 0.0 1.6 0.00 0.00 0.00 89 1016.7
20260906060111 21 0 1.6 6.4 0.00 0.00 0.00 89 1016.7
20260906054607 21 0 1.6 6.4 0.00 0.00 0.00 89 1016.7
20260906053104 21 69 1.6 4.8 0.00 0.00 0.00 89 1016.7
20260906051606 21 0 0.0 4.8 0.00 0.00 0.00 89 1016.6
20260906050133 22 69 1.6 8.0 0.00 0.00 0.00 88 1016.4
20260906044602 22 64 3.2 6.4 0.00 0.00 0.00 88 1016.0
20260906043111 22 67 1.6 4.8 0.00 0.00 0.00 87 1015.8
20260906041605 22 71 1.6 8.0 0.00 0.00 0.00 86 1015.5
20260906040117 22 74 3.2 6.4 0.00 0.00 0.00 85 1015.5
20260906034606 23 74 3.2 9.7 0.00 0.00 0.00 85 1015.5
20260906033108 23 73 1.6 6.4 0.00 0.00 0.00 85 1015.5
20260906031605 23 44 0.0 4.8 0.00 0.00 0.00 85 1015.2
20260906030135 23 44 0.0 4.8 0.00 0.00 0.00 85 1015.2
20260906024609 23 44 1.6 4.8 0.00 0.00 0.00 84 1015.2
20260906023127 24 44 0.0 3.2 0.00 0.00 0.00 84 1015.2
20260906021616 24 0 0.0 1.6 0.00 0.00 0.00 83 1015.1
20260906020107 25 44 0.0 3.2 0.00 0.00 0.00 82 1015.1
20260906014628 25 33 0.0 4.8 0.00 0.00 0.00 82 1014.9
20260906013104 25 60 0.0 4.8 0.00 0.00 0.00 81 1014.6
20260906011607 26 0 1.6 6.4 0.00 0.00 0.00 81 1014.6
20260906010109 26 58 0.0 6.4 0.00 0.00 0.00 80 1014.4
20260906004606 26 19 0.0 6.4 0.00 0.00 0.00 79 1014.3
20260906003110 27 49 1.6 8.0 0.00 0.00 0.00 78 1014.1
20260906001606 27 41 0.0 4.8 0.00 0.00 0.00 76 1014.0
20260906000109 28 69 0.0 3.2 0.00 0.00 0.00 76 1013.9
20260905234618 28 0 0.0 6.4 0.00 0.00 0.00 75 1014.0
20260905233106 28 32 1.6 6.4 0.00 0.00 0.00 75 1013.8
20260905231607 29 13 0.0 4.8 0.00 0.00 0.00 74 1013.4
20260905230110 30 0 1.6 4.8 0.00 0.00 0.00 74 1013.4
20260905224610 30 11 1.6 6.4 0.00 0.00 0.00 72 1013.5
20260905223107 31 0 0.0 6.4 0.00 0.00 0.00 72 1013.4
20260905221605 31 0 0.0 4.8 0.00 0.00 0.00 70 1013.4
20260905220108 31 0 0.0 4.8 0.00 0.00 0.00 68 1013.3
20260905214613 31 320 0.0 4.8 0.00 0.00 0.00 69 1013.3
20260905213117 31 12 1.6 6.4 0.00 0.00 0.00 68 1013.2
20260905211607 32 65 0.0 4.8 0.00 0.00 0.00 68 1013.2
20260905210109 32 321 1.6 6.4 0.00 0.00 0.00 67 1013.2
20260905204605 32 0 0.0 6.4 0.00 0.00 0.00 68 1013.3
20260905203108 31 0 1.6 6.4 0.00 0.00 0.00 68 1013.4
20260905201608 32 333 0.0 4.8 0.00 0.00 0.00 69 1013.4
20260905200106 32 329 0.0 4.8 0.00 0.00 0.00 69 1013.5
20260905194606 32 311 1.6 4.8 0.00 0.00 0.00 69 1013.6
20260905193106 32 0 0.0 4.8 0.00 0.00 0.00 69 1013.6
20260905191615 32 0 0.0 4.8 0.00 0.00 0.00 69 1013.8
20260905190105 32 337 1.6 4.8 0.00 0.00 0.00 69 1013.9
20260905184621 32 0 0.0 4.8 0.00 0.00 0.00 69 1014.0
20260905183106 32 305 1.6 6.4 0.00 0.00 0.00 68 1014.1
20260905181610 32 0 1.6 6.4 0.00 0.00 0.00 69 1014.2
20260905180111 32 328 0.0 4.8 0.00 0.00 0.00 69 1014.2
20260905174617 31 0 0.0 4.8 0.00 0.00 0.00 70 1014.3
20260905173113 31 325 1.6 4.8 0.00 0.00 0.00 71 1014.4
20260905171605 31 5 0.0 8.0 0.00 0.00 0.00 72 1014.4
20260905170106 31 94 0.0 6.4 0.00 0.00 0.00 72 1014.5
20260905164605 31 95 1.6 6.4 0.00 0.00 0.00 73 1014.6
20260905163108 30 71 1.6 6.4 0.00 0.00 0.00 75 1014.7
20260905161608 30 0 0.0 3.2 0.00 0.00 0.00 76 1014.7
20260905160113 30 355 0.0 3.2 0.00 0.00 0.00 75 1014.6
20260905154607 29 0 1.6 4.8 0.00 0.00 0.00 75 1014.6
20260905153118 29 0 1.6 4.8 0.00 0.00 0.00 75 1014.5
20260905151609 28 0 0.0 4.8 0.00 0.00 0.00 76 1014.4
20260905150108 28 10 0.0 4.8 0.00 0.00 0.00 75 1014.4
20260905144611 28 317 0.0 4.8 0.00 0.00 0.00 76 1014.4
20260905143112 28 0 0.0 3.2 0.00 0.00 0.00 78 1014.1
20260905141615 27 155 0.0 3.2 0.00 0.00 0.00 78 1014.1
20260905140109 27 155 0.0 3.2 0.00 0.00 0.00 79 1014.0
20260905134615 26 0 0.0 0.0 0.00 0.00 0.00 84 1014.0
20260905133105 26 0 0.0 0.0 0.00 0.00 0.00 86 1013.8
20260905131608 25 0 0.0 0.0 0.00 0.00 0.00 87 1014.1
20260905130117 25 0 0.0 0.0 0.00 0.00 0.00 88 1014.0
20260905124609 25 0 0.0 0.0 0.00 0.00 0.00 90 1013.6